Weather History for Olympia, WA

Change the Weather History Date:

Friday, February 21, 2014

  Actual Average Record
Temperature  
Mean Temperature 38 °F 41 °F  
Max Temperature 48 °F 50 °F 63 °F (1970)
Min Temperature 28 °F 33 °F 18 °F (1957)
Degree Days  
Heating Degree Days 27 24  
Month to date heating degree days 574 505  
Since 1 July heating degree days 3619 3556  
Cooling Degree Days 0 0  
Month to date cooling degree days 0 0  
Year to date cooling degree days 0 0  
Moisture  
Dew Point 34 °F    
Average Humidity 73    
Maximum Humidity 92    
Minimum Humidity 53    
Precipitation  
Precipitation 0.03 in 0.17 in 1.30 in (1961)
Month to date precipitation 7.34 4.02  
Year to date precipitation 12.03 11.86  
Sea Level Pressure  
Sea Level Pressure 30.27 in    
Wind  
Wind Speed 5 mph (SW)    
Max Wind Speed 13 mph    
Max Gust Speed 17 mph    
Visibility 10 miles    
Events Rain    
T = Trace of Precipitation, MM = Missing Value Source: NWS Daily Summary

Daily Weather History Graph

Daily Weather History Graph

Search for Another Location

Airport:

Trip Planner

Search our weather history database for the weather conditions in past years. The results will help you decide how hot, cold, wet, or windy it might be!

Date:

Astronomy

Feb. 21, 2014 Rise Set
Actual Time 7:05 AM PST 5:45 PM PST
Civil Twilight 6:34 AM PST 6:16 PM PST
Nautical Twilight 5:59 AM PST 6:51 PM PST
Astronomical Twilight 5:24 AM PST 7:26 PM PST
Moon 12:09 AM PST (2/21) 10:07 AM PST (2/21)
Length of Visible Light 11h 41m
Length of Day
10h 39m
Waning Gibbous, 59% of the Moon is Illuminated
Feb 21
Waning Gibbous
Feb 22
Last Quarter
Mar 1
New
Mar 8
First Quarter
Mar 16
Full

Hourly Weather History & Observations

Time (PST) Temp. Windchill Dew Point Humidity Pressure Visibility Wind Dir Wind Speed Gust Speed Precip Events Conditions
12:50 AM 39.2 °F 33.6 °F 37.4 °F 93% 30.25 in 8.0 mi SSW 8.1 mph - 0.01 in Rain Light Rain
12:54 AM 39.9 °F 33.9 °F 37.9 °F 93% 30.25 in 10.0 mi SW 9.2 mph - 0.01 in   Overcast
1:54 AM 41.0 °F 35.8 °F 37.0 °F 86% 30.25 in 10.0 mi SSW 8.1 mph - 0.00 in   Overcast
2:32 AM 41.0 °F 35.8 °F 37.9 °F 89% 30.25 in 7.0 mi WSW 8.1 mph - 0.00 in Rain Light Rain
2:54 AM 39.9 °F 33.9 °F 37.9 °F 93% 30.26 in 6.0 mi SW 9.2 mph - 0.01 in Rain Light Rain
3:02 AM 39.9 °F 33.9 °F 37.9 °F 93% 30.25 in 7.0 mi SW 9.2 mph - 0.00 in Rain Light Rain
3:54 AM 39.9 °F 34.5 °F 37.9 °F 93% 30.26 in 10.0 mi SW 8.1 mph - 0.01 in   Overcast
4:54 AM 39.0 °F 35.7 °F 37.9 °F 96% 30.27 in 10.0 mi SW 4.6 mph - N/A   Mostly Cloudy
5:25 AM 39.0 °F 35.7 °F 37.0 °F 93% 30.27 in 10.0 mi SW 4.6 mph - N/A   Overcast
5:50 AM 37.4 °F 33.8 °F 35.6 °F 93% 30.27 in 10.0 mi South 4.6 mph - N/A   Mostly Cloudy
5:54 AM 37.9 °F 32.7 °F 36.0 °F 93% 30.27 in 10.0 mi South 6.9 mph - N/A   Mostly Cloudy
6:54 AM 37.0 °F 34.5 °F 36.0 °F 96% 30.28 in 10.0 mi SW 3.5 mph - N/A   Clear
7:54 AM 37.9 °F 32.7 °F 35.1 °F 89% 30.29 in 10.0 mi SSW 6.9 mph - N/A   Clear
8:54 AM 39.0 °F 35.7 °F 36.0 °F 89% 30.30 in 10.0 mi WSW 4.6 mph - N/A   Overcast
9:54 AM 41.0 °F 36.4 °F 35.1 °F 79% 30.30 in 10.0 mi SW 6.9 mph - N/A   Mostly Cloudy
10:54 AM 43.0 °F 38.2 °F 36.0 °F 76% 30.31 in 10.0 mi West 8.1 mph - N/A   Mostly Cloudy
11:54 AM 45.0 °F 40.6 °F 33.1 °F 63% 30.30 in 10.0 mi West 8.1 mph - N/A   Mostly Cloudy
12:54 PM 45.0 °F 40.1 °F 30.0 °F 56% 30.28 in 10.0 mi WNW 9.2 mph - N/A   Mostly Cloudy
1:54 PM 46.0 °F 42.5 °F 30.0 °F 54% 30.27 in 10.0 mi WNW 6.9 mph - N/A   Scattered Clouds
2:54 PM 46.0 °F 41.4 °F 32.0 °F 58% 30.26 in 10.0 mi WSW 9.2 mph - N/A   Mostly Cloudy
3:54 PM 44.1 °F 39.5 °F 32.0 °F 63% 30.26 in 10.0 mi WSW 8.1 mph - N/A   Scattered Clouds
4:54 PM 43.0 °F 40.3 °F 33.1 °F 68% 30.26 in 10.0 mi SW 4.6 mph - N/A   Partly Cloudy
5:54 PM 39.0 °F 36.8 °F 32.0 °F 76% 30.25 in 10.0 mi WSW 3.5 mph - N/A   Partly Cloudy
6:54 PM 35.1 °F - 30.9 °F 85% 30.26 in 10.0 mi Calm Calm - N/A   Partly Cloudy
7:54 PM 33.1 °F 30.0 °F 30.9 °F 92% 30.26 in 10.0 mi SSW 3.5 mph - N/A   Clear
8:54 PM 32.0 °F - 30.0 °F 92% 30.26 in 10.0 mi Calm Calm - N/A   Clear
9:54 PM 32.0 °F - 30.9 °F 96% 30.26 in 9.0 mi Calm Calm - N/A   Clear
10:54 PM 30.0 °F - 28.9 °F 96% 30.26 in 9.0 mi Calm Calm - N/A   Clear
11:54 PM 30.0 °F - 28.9 °F 96% 30.25 in 8.0 mi Calm Calm - N/A   Clear